2024-169D (61192 NORAD) Tracking and Keplerian Element Data

This shows tracking and keplerian element data for the satellite.

Feedback or suggestion? Click here.




ElementValue
Catalog61192
Name2024-169D
Epoch Orbit342
Epoch Day286.88182156
Epoch Year2024
RAAN12.0652
Inclination97.5865
Eccentricity0.0012871
Argument of Perigee194.4891
Mean Anonmoly165.5971
Mean Motion15.10571435
Decay Rate0.00016321
L11 61192U 24169D 24286.88182156 .00016321 00000+0 98942-3 0 9999
L22 61192 97.5865 12.0652 0012871 194.4891 165.5971 15.10571435 3427



Live tracking and technical data element details for 2024-169D (NORAD 61192). 2024-169D can be tracked NOW for your location showing map with azimuth and elevation plus other details from your city location.







IsCatalogInMostPopularTable: catalog: 61192, numindb: 22
Update: records affected: 1



GetName: 61192 2024-169D

Hit Count: updated at: Wed, 04 Dec 2024 09:29:47 GMT